Year,Month,Day,Hour,Minute,Value (Times are PST for temperature in C)
2017,06,22,00,00,13.40
2017,06,22,00,01,13.40
2017,06,22,00,02,13.40
2017,06,22,00,03,13.50
2017,06,22,00,04,13.50
2017,06,22,00,05,13.50
2017,06,22,00,06,13.50
2017,06,22,00,07,13.50
2017,06,22,00,08,13.40
2017,06,22,00,09,13.40
2017,06,22,00,10,13.40
2017,06,22,00,11,13.40
2017,06,22,00,12,13.40
2017,06,22,00,13,13.40
2017,06,22,00,14,13.40
2017,06,22,00,15,13.40
2017,06,22,00,16,13.40
2017,06,22,00,17,13.30
2017,06,22,00,18,13.30
2017,06,22,00,19,13.30
2017,06,22,00,20,13.30
2017,06,22,00,21,13.30
2017,06,22,00,22,13.30
2017,06,22,00,23,13.30
2017,06,22,00,24,13.20
2017,06,22,00,25,13.20
2017,06,22,00,26,13.20
2017,06,22,00,27,13.20
2017,06,22,00,28,13.20
2017,06,22,00,29,13.20
2017,06,22,00,30,13.10
2017,06,22,00,31,13.10
2017,06,22,00,32,13.10
2017,06,22,00,33,13.10
2017,06,22,00,34,13.00
2017,06,22,00,35,13.00
2017,06,22,00,36,12.90
2017,06,22,00,37,12.90
2017,06,22,00,38,12.90
2017,06,22,00,39,12.90
2017,06,22,00,40,12.80
2017,06,22,00,41,12.80
2017,06,22,00,42,12.80
2017,06,22,00,43,12.80
2017,06,22,00,44,12.80
2017,06,22,00,45,12.80
2017,06,22,00,46,12.70
2017,06,22,00,47,12.70
2017,06,22,00,48,12.70
2017,06,22,00,49,12.70
2017,06,22,00,50,12.70
2017,06,22,00,51,12.70
2017,06,22,00,52,12.70
2017,06,22,00,53,12.70
2017,06,22,00,54,12.60
2017,06,22,00,55,12.60
2017,06,22,00,56,12.60
2017,06,22,00,57,12.60
2017,06,22,00,58,12.60
2017,06,22,00,59,12.50
2017,06,22,01,00,12.50
2017,06,22,01,01,12.50
2017,06,22,01,02,12.50
2017,06,22,01,03,12.50
2017,06,22,01,04,12.50
2017,06,22,01,05,12.50
2017,06,22,01,06,12.50
2017,06,22,01,07,12.40
2017,06,22,01,08,12.40
2017,06,22,01,09,12.40
2017,06,22,01,10,12.40
2017,06,22,01,11,12.40
2017,06,22,01,12,12.40
2017,06,22,01,13,12.40
2017,06,22,01,14,12.30
2017,06,22,01,15,12.30
2017,06,22,01,16,12.30
2017,06,22,01,17,12.30
2017,06,22,01,18,12.30
2017,06,22,01,19,12.30
2017,06,22,01,20,12.30
2017,06,22,01,21,12.30
2017,06,22,01,22,12.30
2017,06,22,01,23,12.20
2017,06,22,01,24,12.20
2017,06,22,01,25,12.20
2017,06,22,01,26,12.20
2017,06,22,01,27,12.20
2017,06,22,01,28,12.20
2017,06,22,01,29,12.10
2017,06,22,01,30,12.10
2017,06,22,01,31,12.10
2017,06,22,01,32,12.10
2017,06,22,01,33,12.10
2017,06,22,01,34,12.00
2017,06,22,01,35,12.00
2017,06,22,01,36,12.00
2017,06,22,01,37,11.90
2017,06,22,01,38,11.90
2017,06,22,01,39,11.90
2017,06,22,01,40,11.90
2017,06,22,01,41,11.80
2017,06,22,01,42,11.80
2017,06,22,01,43,11.80
2017,06,22,01,44,11.80
2017,06,22,01,45,11.80
2017,06,22,01,46,11.70
2017,06,22,01,47,11.70
2017,06,22,01,48,11.70
2017,06,22,01,49,11.70
2017,06,22,01,50,11.70
2017,06,22,01,51,11.70
2017,06,22,01,52,11.70
2017,06,22,01,53,11.70
2017,06,22,01,54,11.70
2017,06,22,01,55,11.70
2017,06,22,01,56,11.70
2017,06,22,01,57,11.70
2017,06,22,01,58,11.80
2017,06,22,01,59,11.80
2017,06,22,02,00,11.80
2017,06,22,02,01,11.70
2017,06,22,02,02,11.70
2017,06,22,02,03,11.70
2017,06,22,02,04,11.70
2017,06,22,02,05,11.70
2017,06,22,02,06,11.70
2017,06,22,02,07,11.70
2017,06,22,02,08,11.70
2017,06,22,02,09,11.70
2017,06,22,02,10,11.60
2017,06,22,02,11,11.60
2017,06,22,02,12,11.60
2017,06,22,02,13,11.60
2017,06,22,02,14,11.60
2017,06,22,02,15,11.60
2017,06,22,02,16,11.60
2017,06,22,02,17,11.60
2017,06,22,02,18,11.60
2017,06,22,02,19,11.60
2017,06,22,02,20,11.60
2017,06,22,02,21,11.60
2017,06,22,02,22,11.70
2017,06,22,02,23,11.70
2017,06,22,02,24,11.70
2017,06,22,02,25,11.70
2017,06,22,02,26,11.70
2017,06,22,02,27,11.70
2017,06,22,02,28,11.70
2017,06,22,02,29,11.80
2017,06,22,02,30,11.80
2017,06,22,02,31,11.80
2017,06,22,02,32,11.80
2017,06,22,02,33,11.80
2017,06,22,02,34,11.80
2017,06,22,02,35,11.70
2017,06,22,02,36,11.70
2017,06,22,02,37,11.70
2017,06,22,02,38,11.70
2017,06,22,02,39,11.70
2017,06,22,02,40,11.70
2017,06,22,02,41,11.70
2017,06,22,02,42,11.70
2017,06,22,02,43,11.70
2017,06,22,02,44,11.70
2017,06,22,02,45,11.60
2017,06,22,02,46,11.60
2017,06,22,02,47,11.60
2017,06,22,02,48,11.60
2017,06,22,02,49,11.60
2017,06,22,02,50,11.60
2017,06,22,02,51,11.50
2017,06,22,02,52,11.50
2017,06,22,02,53,11.50
2017,06,22,02,54,11.50
2017,06,22,02,55,11.40
2017,06,22,02,56,11.40
2017,06,22,02,57,11.40
2017,06,22,02,58,11.40
2017,06,22,02,59,11.40
2017,06,22,03,00,11.40
2017,06,22,03,01,11.40
2017,06,22,03,02,11.40
2017,06,22,03,03,11.40
2017,06,22,03,04,11.30
2017,06,22,03,05,11.30
2017,06,22,03,06,11.30
2017,06,22,03,07,11.20
2017,06,22,03,08,11.20
2017,06,22,03,09,11.20
2017,06,22,03,10,11.20
2017,06,22,03,11,11.20
2017,06,22,03,12,11.20
2017,06,22,03,13,11.20
2017,06,22,03,14,11.20
2017,06,22,03,15,11.20
2017,06,22,03,16,11.20
2017,06,22,03,17,11.20
2017,06,22,03,18,11.20
2017,06,22,03,19,11.20
2017,06,22,03,20,11.20
2017,06,22,03,21,11.20
2017,06,22,03,22,11.20
2017,06,22,03,23,11.20
2017,06,22,03,24,11.20
2017,06,22,03,25,11.20
2017,06,22,03,26,11.20
2017,06,22,03,27,11.20
2017,06,22,03,28,11.20
2017,06,22,03,29,11.20
2017,06,22,03,30,11.20
2017,06,22,03,31,11.20
2017,06,22,03,32,11.20
2017,06,22,03,33,11.20
2017,06,22,03,34,11.20
2017,06,22,03,35,11.20
2017,06,22,03,36,11.10
2017,06,22,03,37,11.10
2017,06,22,03,38,11.10
2017,06,22,03,39,11.10
2017,06,22,03,40,11.10
2017,06,22,03,41,11.10
2017,06,22,03,42,11.10
2017,06,22,03,43,11.10
2017,06,22,03,44,11.10
2017,06,22,03,45,11.00
2017,06,22,03,46,11.00
2017,06,22,03,47,11.00
2017,06,22,03,48,11.00
2017,06,22,03,49,11.00
2017,06,22,03,50,11.00
2017,06,22,03,51,11.00
2017,06,22,03,52,10.90
2017,06,22,03,53,10.90
2017,06,22,03,54,10.90
2017,06,22,03,55,10.90
2017,06,22,03,56,10.80
2017,06,22,03,57,10.80
2017,06,22,03,58,10.80
2017,06,22,03,59,10.80
2017,06,22,04,00,10.70
2017,06,22,04,01,10.70
2017,06,22,04,02,10.70
2017,06,22,04,03,10.70
2017,06,22,04,04,10.60
2017,06,22,04,05,10.60
2017,06,22,04,06,10.60
2017,06,22,04,07,10.60
2017,06,22,04,08,10.50
2017,06,22,04,09,10.50
2017,06,22,04,10,10.50
2017,06,22,04,11,10.40
2017,06,22,04,12,10.40
2017,06,22,04,13,10.40
2017,06,22,04,14,10.40
2017,06,22,04,15,10.30
2017,06,22,04,16,10.30
2017,06,22,04,17,10.30
2017,06,22,04,18,10.30
2017,06,22,04,19,10.30
2017,06,22,04,20,10.30
2017,06,22,04,21,10.30
2017,06,22,04,22,10.20
2017,06,22,04,23,10.20
2017,06,22,04,24,10.20
2017,06,22,04,25,10.10
2017,06,22,04,26,10.10
2017,06,22,04,27,10.00
2017,06,22,04,28,9.90
2017,06,22,04,29,9.90
2017,06,22,04,30,9.80
2017,06,22,04,31,9.80
2017,06,22,04,32,9.70
2017,06,22,04,33,9.70
2017,06,22,04,34,9.70
2017,06,22,04,35,9.60
2017,06,22,04,36,9.60
2017,06,22,04,37,9.60
2017,06,22,04,38,9.50
2017,06,22,04,39,9.50
2017,06,22,04,40,9.50
2017,06,22,04,41,9.40
2017,06,22,04,42,9.40
2017,06,22,04,43,9.40
2017,06,22,04,44,9.40
2017,06,22,04,45,9.30
2017,06,22,04,46,9.30
2017,06,22,04,47,9.30
2017,06,22,04,48,9.30
2017,06,22,04,49,9.20
2017,06,22,04,50,9.20
2017,06,22,04,51,9.20
2017,06,22,04,52,9.10
2017,06,22,04,53,9.10
2017,06,22,04,54,9.10
2017,06,22,04,55,9.00
2017,06,22,04,56,9.00
2017,06,22,04,57,8.90
2017,06,22,04,58,8.90
2017,06,22,04,59,8.90
2017,06,22,05,00,8.80
2017,06,22,05,01,8.80
2017,06,22,05,02,8.80
2017,06,22,05,03,8.80
2017,06,22,05,04,8.70
2017,06,22,05,05,8.70
2017,06,22,05,06,8.60
2017,06,22,05,07,8.60
2017,06,22,05,08,8.60
2017,06,22,05,09,8.60
2017,06,22,05,10,8.50
2017,06,22,05,11,8.50
2017,06,22,05,12,8.50
2017,06,22,05,13,8.40
2017,06,22,05,14,8.40
2017,06,22,05,15,8.40
2017,06,22,05,16,8.40
2017,06,22,05,17,8.40
2017,06,22,05,18,8.30
2017,06,22,05,19,8.30
2017,06,22,05,20,8.30
2017,06,22,05,21,8.20
2017,06,22,05,22,8.20
2017,06,22,05,23,8.20
2017,06,22,05,24,8.10
2017,06,22,05,25,8.10
2017,06,22,05,26,8.10
2017,06,22,05,27,8.10
2017,06,22,05,28,8.10
2017,06,22,05,29,8.10
2017,06,22,05,30,8.10
2017,06,22,05,31,8.10
2017,06,22,05,32,8.10
2017,06,22,05,33,8.10
2017,06,22,05,34,8.10
2017,06,22,05,35,8.10
2017,06,22,05,36,8.10
2017,06,22,05,37,8.00
2017,06,22,05,38,8.00
2017,06,22,05,39,7.90
2017,06,22,05,40,7.90
2017,06,22,05,41,7.80
2017,06,22,05,42,7.80
2017,06,22,05,43,7.80
2017,06,22,05,44,7.70
2017,06,22,05,45,7.70
2017,06,22,05,46,7.70
2017,06,22,05,47,7.70
2017,06,22,05,48,7.60
2017,06,22,05,49,7.60
2017,06,22,05,50,7.60
2017,06,22,05,51,7.60
2017,06,22,05,52,7.60
2017,06,22,05,53,7.60
2017,06,22,05,54,7.60
2017,06,22,05,55,7.60
2017,06,22,05,56,7.70
2017,06,22,05,57,7.70
2017,06,22,05,58,7.70
2017,06,22,05,59,7.70
2017,06,22,06,00,7.70
2017,06,22,06,01,7.80
2017,06,22,06,02,7.80
2017,06,22,06,03,7.80
2017,06,22,06,04,7.80
2017,06,22,06,05,7.80
2017,06,22,06,06,7.80
2017,06,22,06,07,7.80
2017,06,22,06,08,7.80
2017,06,22,06,09,7.80
2017,06,22,06,10,7.80
2017,06,22,06,11,7.80
2017,06,22,06,12,7.80
2017,06,22,06,13,7.80
2017,06,22,06,14,7.80
2017,06,22,06,15,7.80
2017,06,22,06,16,7.80
2017,06,22,06,17,7.90
2017,06,22,06,18,7.90
2017,06,22,06,19,7.90
2017,06,22,06,20,7.90
2017,06,22,06,21,7.90
2017,06,22,06,22,7.90
2017,06,22,06,23,8.00
2017,06,22,06,24,8.00
2017,06,22,06,25,8.00
2017,06,22,06,26,8.10
2017,06,22,06,27,8.10
2017,06,22,06,28,8.20
2017,06,22,06,29,8.20
2017,06,22,06,30,8.30
2017,06,22,06,31,8.30
2017,06,22,06,32,8.40
2017,06,22,06,33,8.40
2017,06,22,06,34,8.50
2017,06,22,06,35,8.50
2017,06,22,06,36,8.60
2017,06,22,06,37,8.60
2017,06,22,06,38,8.70
2017,06,22,06,39,8.70
2017,06,22,06,40,8.80
2017,06,22,06,41,8.80
2017,06,22,06,42,8.90
2017,06,22,06,43,8.90
2017,06,22,06,44,9.00
2017,06,22,06,45,9.00
2017,06,22,06,46,9.10
2017,06,22,06,47,9.10
2017,06,22,06,48,9.20
2017,06,22,06,49,9.30
2017,06,22,06,50,9.40
2017,06,22,06,51,9.40
2017,06,22,06,52,9.50
2017,06,22,06,53,9.60
2017,06,22,06,54,9.60
2017,06,22,06,55,9.70
2017,06,22,06,56,9.70
2017,06,22,06,57,9.80
2017,06,22,06,58,9.90
2017,06,22,06,59,10.00
2017,06,22,07,00,10.00
2017,06,22,07,01,10.10
2017,06,22,07,02,10.20
2017,06,22,07,03,10.30
2017,06,22,07,04,10.30
2017,06,22,07,05,10.40
2017,06,22,07,06,10.50
2017,06,22,07,07,10.50
2017,06,22,07,08,10.60
2017,06,22,07,09,10.70
2017,06,22,07,10,10.80
2017,06,22,07,11,10.80
2017,06,22,07,12,10.80
2017,06,22,07,13,10.90
2017,06,22,07,14,11.00
2017,06,22,07,15,11.00
2017,06,22,07,16,11.10
2017,06,22,07,17,11.10
2017,06,22,07,18,11.10
2017,06,22,07,19,11.10
2017,06,22,07,20,11.20
2017,06,22,07,21,11.20
2017,06,22,07,22,11.30
2017,06,22,07,23,11.30
2017,06,22,07,24,11.30
2017,06,22,07,25,11.30
2017,06,22,07,26,11.40
2017,06,22,07,27,11.40
2017,06,22,07,28,11.40
2017,06,22,07,29,11.50
2017,06,22,07,30,11.50
2017,06,22,07,31,11.60
2017,06,22,07,32,11.60
2017,06,22,07,33,11.70
2017,06,22,07,34,11.70
2017,06,22,07,35,11.70
2017,06,22,07,36,11.80
2017,06,22,07,37,11.80
2017,06,22,07,38,11.80
2017,06,22,07,39,11.80
2017,06,22,07,40,11.90
2017,06,22,07,41,11.90
2017,06,22,07,42,11.90
2017,06,22,07,43,11.90
2017,06,22,07,44,12.00
2017,06,22,07,45,12.00
2017,06,22,07,46,12.00
2017,06,22,07,47,12.10
2017,06,22,07,48,12.10
2017,06,22,07,49,12.10
2017,06,22,07,50,12.10
2017,06,22,07,51,12.10
2017,06,22,07,52,12.20
2017,06,22,07,53,12.20
2017,06,22,07,54,12.20
2017,06,22,07,55,12.20
2017,06,22,07,56,12.30
2017,06,22,07,57,12.30
2017,06,22,07,58,12.30
2017,06,22,07,59,12.30
2017,06,22,08,00,12.30
2017,06,22,08,01,12.30
2017,06,22,08,02,12.40
2017,06,22,08,03,12.40
2017,06,22,08,04,12.50
2017,06,22,08,05,12.50
2017,06,22,08,06,12.60
2017,06,22,08,07,12.60
2017,06,22,08,08,12.60
2017,06,22,08,09,12.60
2017,06,22,08,10,12.70
2017,06,22,08,11,12.70
2017,06,22,08,12,12.70
2017,06,22,08,13,12.70
2017,06,22,08,14,12.80
2017,06,22,08,15,12.80
2017,06,22,08,16,12.80
2017,06,22,08,17,12.80
2017,06,22,08,18,12.80
2017,06,22,08,19,12.80
2017,06,22,08,20,12.80
2017,06,22,08,21,12.80
2017,06,22,08,22,12.90
2017,06,22,08,23,12.90
2017,06,22,08,24,12.90
2017,06,22,08,25,12.90
2017,06,22,08,26,13.00
2017,06,22,08,27,13.00
2017,06,22,08,28,13.10
2017,06,22,08,29,13.10
2017,06,22,08,30,13.20
2017,06,22,08,31,13.20
2017,06,22,08,32,13.20
2017,06,22,08,33,13.20
2017,06,22,08,34,13.20
2017,06,22,08,35,13.20
2017,06,22,08,36,13.20
2017,06,22,08,37,13.30
2017,06,22,08,38,13.30
2017,06,22,08,39,13.30
2017,06,22,08,40,13.30
2017,06,22,08,41,13.30
2017,06,22,08,42,13.30
2017,06,22,08,43,13.30
2017,06,22,08,44,13.30
2017,06,22,08,45,13.30
2017,06,22,08,46,13.30
2017,06,22,08,47,13.40
2017,06,22,08,48,13.40
2017,06,22,08,49,13.50
2017,06,22,08,50,13.50
2017,06,22,08,51,13.60
2017,06,22,08,52,13.60
2017,06,22,08,53,13.60
2017,06,22,08,54,13.60
2017,06,22,08,55,13.60
2017,06,22,08,56,13.60
2017,06,22,08,57,13.70
2017,06,22,08,58,13.70
2017,06,22,08,59,13.80
2017,06,22,09,00,13.90
2017,06,22,09,01,13.90
2017,06,22,09,02,13.90
2017,06,22,09,03,13.90
2017,06,22,09,04,13.90
2017,06,22,09,05,13.90
2017,06,22,09,06,13.90
2017,06,22,09,07,13.90
2017,06,22,09,08,13.90
2017,06,22,09,09,14.00
2017,06,22,09,10,14.00
2017,06,22,09,11,14.00
2017,06,22,09,12,14.00
2017,06,22,09,13,14.00
2017,06,22,09,14,14.00
2017,06,22,09,15,14.00
2017,06,22,09,16,14.00
2017,06,22,09,17,14.00
2017,06,22,09,18,13.90
2017,06,22,09,19,13.90
2017,06,22,09,20,14.00
2017,06,22,09,21,14.00
2017,06,22,09,22,14.10
2017,06,22,09,23,14.10
2017,06,22,09,24,14.10
2017,06,22,09,25,14.20
2017,06,22,09,26,14.20
2017,06,22,09,27,14.30
2017,06,22,09,28,14.30
2017,06,22,09,29,14.40
2017,06,22,09,30,14.40
2017,06,22,09,31,14.40
2017,06,22,09,32,14.40
2017,06,22,09,33,14.40
2017,06,22,09,34,14.50
2017,06,22,09,35,14.50
2017,06,22,09,36,14.60
2017,06,22,09,37,14.60
2017,06,22,09,38,14.70
2017,06,22,09,39,14.70
2017,06,22,09,40,14.80
2017,06,22,09,41,14.80
2017,06,22,09,42,14.80
2017,06,22,09,43,14.90
2017,06,22,09,44,14.90
2017,06,22,09,45,14.90
2017,06,22,09,46,14.80
2017,06,22,09,47,14.80
2017,06,22,09,48,14.90
2017,06,22,09,49,14.90
2017,06,22,09,50,14.90
2017,06,22,09,51,15.00
2017,06,22,09,52,15.00
2017,06,22,09,53,15.10
2017,06,22,09,54,15.10
2017,06,22,09,55,15.10
2017,06,22,09,56,15.20
2017,06,22,09,57,15.20
2017,06,22,09,58,15.20
2017,06,22,09,59,15.30
2017,06,22,10,00,15.30
2017,06,22,10,01,15.30
2017,06,22,10,02,15.30
2017,06,22,10,03,15.30
2017,06,22,10,04,15.30
2017,06,22,10,05,15.30
2017,06,22,10,06,15.20
2017,06,22,10,07,15.20
2017,06,22,10,08,15.20
2017,06,22,10,09,15.20
2017,06,22,10,10,15.20
2017,06,22,10,11,15.20
2017,06,22,10,12,15.30
2017,06,22,10,13,15.30
2017,06,22,10,14,15.30
2017,06,22,10,15,15.30
2017,06,22,10,16,15.20
2017,06,22,10,17,15.20
2017,06,22,10,18,15.20
2017,06,22,10,19,15.20
2017,06,22,10,20,15.20
2017,06,22,10,21,15.20
2017,06,22,10,22,15.20
2017,06,22,10,23,15.20
2017,06,22,10,24,15.30
2017,06,22,10,25,15.30
2017,06,22,10,26,15.20
2017,06,22,10,27,15.20
2017,06,22,10,28,15.30
2017,06,22,10,29,15.30
2017,06,22,10,30,15.30
2017,06,22,10,31,15.30
2017,06,22,10,32,15.40
2017,06,22,10,33,15.40
2017,06,22,10,34,15.40
2017,06,22,10,35,15.50
2017,06,22,10,36,15.50
2017,06,22,10,37,15.60
2017,06,22,10,38,15.70
2017,06,22,10,39,15.70
2017,06,22,10,40,15.80
2017,06,22,10,41,15.90
2017,06,22,10,42,15.90
2017,06,22,10,43,16.00
2017,06,22,10,44,16.00
2017,06,22,10,45,16.10
2017,06,22,10,46,16.10
2017,06,22,10,47,16.20
2017,06,22,10,48,16.20
2017,06,22,10,49,16.20
2017,06,22,10,50,16.20
2017,06,22,10,51,16.20
2017,06,22,10,52,16.20
2017,06,22,10,53,16.20
2017,06,22,10,54,16.20
2017,06,22,10,55,16.30
2017,06,22,10,56,16.30
2017,06,22,10,57,16.30
2017,06,22,10,58,16.30
2017,06,22,10,59,16.30
2017,06,22,11,00,16.30
2017,06,22,11,01,16.30
2017,06,22,11,02,16.30
2017,06,22,11,03,16.30
2017,06,22,11,04,16.40
2017,06,22,11,05,16.30
2017,06,22,11,06,16.30
2017,06,22,11,07,16.40
2017,06,22,11,08,16.40
2017,06,22,11,09,16.50
2017,06,22,11,10,16.60
2017,06,22,11,11,16.70
2017,06,22,11,12,16.70
2017,06,22,11,13,16.70
2017,06,22,11,14,16.70
2017,06,22,11,15,16.70
2017,06,22,11,16,16.70
2017,06,22,11,17,16.70
2017,06,22,11,18,16.70
2017,06,22,11,19,16.80
2017,06,22,11,20,16.90
2017,06,22,11,21,16.90
2017,06,22,11,22,16.90
2017,06,22,11,23,17.00
2017,06,22,11,24,17.00
2017,06,22,11,25,16.90
2017,06,22,11,26,16.90
2017,06,22,11,27,16.80
2017,06,22,11,28,16.70
2017,06,22,11,29,16.60
2017,06,22,11,30,16.60
2017,06,22,11,31,16.60
2017,06,22,11,32,16.60
2017,06,22,11,33,16.60
2017,06,22,11,34,16.60
2017,06,22,11,35,16.60
2017,06,22,11,36,16.60
2017,06,22,11,37,16.60
2017,06,22,11,38,16.60
2017,06,22,11,39,16.60
2017,06,22,11,40,16.60
2017,06,22,11,41,16.60
2017,06,22,11,42,16.70
2017,06,22,11,43,16.80
2017,06,22,11,44,16.80
2017,06,22,11,45,16.90
2017,06,22,11,46,16.90
2017,06,22,11,47,16.90
2017,06,22,11,48,16.90
2017,06,22,11,49,16.90
2017,06,22,11,50,16.80
2017,06,22,11,51,16.80
2017,06,22,11,52,16.80
2017,06,22,11,53,16.80
2017,06,22,11,54,16.90
2017,06,22,11,55,17.00
2017,06,22,11,56,17.10
2017,06,22,11,57,17.10
2017,06,22,11,58,17.10
2017,06,22,11,59,17.20
2017,06,22,12,00,17.20
2017,06,22,12,01,17.20
2017,06,22,12,02,17.20
2017,06,22,12,03,17.20
2017,06,22,12,04,17.20
2017,06,22,12,05,17.20
2017,06,22,12,06,17.20
2017,06,22,12,07,17.20
2017,06,22,12,08,17.20
2017,06,22,12,09,17.10
2017,06,22,12,10,17.20
2017,06,22,12,11,17.20
2017,06,22,12,12,17.30
2017,06,22,12,13,17.30
2017,06,22,12,14,17.30
2017,06,22,12,15,17.30
2017,06,22,12,16,17.40
2017,06,22,12,17,17.50
2017,06,22,12,18,17.60
2017,06,22,12,19,17.60
2017,06,22,12,20,17.70
2017,06,22,12,21,17.80
2017,06,22,12,22,17.70
2017,06,22,12,23,17.70
2017,06,22,12,24,17.70
2017,06,22,12,25,17.70
2017,06,22,12,26,17.70
2017,06,22,12,27,17.60
2017,06,22,12,28,17.60
2017,06,22,12,29,17.60
2017,06,22,12,30,17.60
2017,06,22,12,31,17.60
2017,06,22,12,32,17.70
2017,06,22,12,33,17.70
2017,06,22,12,34,17.70
2017,06,22,12,35,17.80
2017,06,22,12,36,17.80
2017,06,22,12,37,17.90
2017,06,22,12,38,17.90
2017,06,22,12,39,17.90
2017,06,22,12,40,18.00
2017,06,22,12,41,18.10
2017,06,22,12,42,18.10
2017,06,22,12,43,18.10
2017,06,22,12,44,18.10
2017,06,22,12,45,18.10
2017,06,22,12,46,18.10
2017,06,22,12,47,18.00
2017,06,22,12,48,18.00
2017,06,22,12,49,17.90
2017,06,22,12,50,17.90
2017,06,22,12,51,17.90
2017,06,22,12,52,17.80
2017,06,22,12,53,17.80
2017,06,22,12,54,17.80
2017,06,22,12,55,17.80
2017,06,22,12,56,17.80
2017,06,22,12,57,17.80
2017,06,22,12,58,17.80
2017,06,22,12,59,17.90
2017,06,22,13,00,17.90
2017,06,22,13,01,17.80
2017,06,22,13,02,17.80
2017,06,22,13,03,17.80
2017,06,22,13,04,17.80
2017,06,22,13,05,17.80
2017,06,22,13,06,17.80
2017,06,22,13,07,17.80
2017,06,22,13,08,17.80
2017,06,22,13,09,17.90
2017,06,22,13,10,17.90
2017,06,22,13,11,18.00
2017,06,22,13,12,18.10
2017,06,22,13,13,18.30
2017,06,22,13,14,18.40
2017,06,22,13,15,18.50
2017,06,22,13,16,18.60
2017,06,22,13,17,18.60
2017,06,22,13,18,18.60
2017,06,22,13,19,18.60
2017,06,22,13,20,18.70
2017,06,22,13,21,18.70
2017,06,22,13,22,18.70
2017,06,22,13,23,18.70
2017,06,22,13,24,18.70
2017,06,22,13,25,18.80
2017,06,22,13,26,18.80
2017,06,22,13,27,18.80
2017,06,22,13,28,18.90
2017,06,22,13,29,18.90
2017,06,22,13,30,19.00
2017,06,22,13,31,19.00
2017,06,22,13,32,19.00
2017,06,22,13,33,19.00
2017,06,22,13,34,19.10
2017,06,22,13,35,19.10
2017,06,22,13,36,19.10
2017,06,22,13,37,19.10
2017,06,22,13,38,19.20
2017,06,22,13,39,19.10
2017,06,22,13,40,19.10
2017,06,22,13,41,19.10
2017,06,22,13,42,19.00
2017,06,22,13,43,19.00
2017,06,22,13,44,19.10
2017,06,22,13,45,19.10
2017,06,22,13,46,19.20
2017,06,22,13,47,19.20
2017,06,22,13,48,19.20
2017,06,22,13,49,19.30
2017,06,22,13,50,19.30
2017,06,22,13,51,19.40
2017,06,22,13,52,19.50
2017,06,22,13,53,19.60
2017,06,22,13,54,19.60
2017,06,22,13,55,19.70
2017,06,22,13,56,19.70
2017,06,22,13,57,19.70
2017,06,22,13,58,19.70
2017,06,22,13,59,19.80
2017,06,22,14,00,19.80
2017,06,22,14,01,19.90
2017,06,22,14,02,19.90
2017,06,22,14,03,19.90
2017,06,22,14,04,19.90
2017,06,22,14,05,19.90
2017,06,22,14,06,19.90
2017,06,22,14,07,19.80
2017,06,22,14,08,19.80
2017,06,22,14,09,19.80
2017,06,22,14,10,19.80
2017,06,22,14,11,19.80
2017,06,22,14,12,19.80
2017,06,22,14,13,19.70
2017,06,22,14,14,19.60
2017,06,22,14,15,19.50
2017,06,22,14,16,19.40
2017,06,22,14,17,19.40
2017,06,22,14,18,19.40
2017,06,22,14,19,19.40
2017,06,22,14,20,19.50
2017,06,22,14,21,19.60
2017,06,22,14,22,19.70
2017,06,22,14,23,19.80
2017,06,22,14,24,20.00
2017,06,22,14,25,20.20
2017,06,22,14,26,20.30
2017,06,22,14,27,20.40
2017,06,22,14,28,20.40
2017,06,22,14,29,20.50
2017,06,22,14,30,20.60
2017,06,22,14,31,20.70
2017,06,22,14,32,20.70
2017,06,22,14,33,20.70
2017,06,22,14,34,20.70
2017,06,22,14,35,20.70
2017,06,22,14,36,20.70
2017,06,22,14,37,20.70
2017,06,22,14,38,20.70
2017,06,22,14,39,20.70
2017,06,22,14,40,20.60
2017,06,22,14,41,20.60
2017,06,22,14,42,20.70
2017,06,22,14,43,20.70
2017,06,22,14,44,20.60
2017,06,22,14,45,20.60
2017,06,22,14,46,20.60
2017,06,22,14,47,20.60
2017,06,22,14,48,20.60
2017,06,22,14,49,20.60
2017,06,22,14,50,20.70
2017,06,22,14,51,20.70
2017,06,22,14,52,20.70
2017,06,22,14,53,20.70
2017,06,22,14,54,20.70
2017,06,22,14,55,20.70
2017,06,22,14,56,20.70
2017,06,22,14,57,20.70
2017,06,22,14,58,20.70
2017,06,22,14,59,20.70
2017,06,22,15,00,20.70
2017,06,22,15,01,20.80
2017,06,22,15,02,20.80
2017,06,22,15,03,20.80
2017,06,22,15,04,20.80
2017,06,22,15,05,20.80
2017,06,22,15,06,20.90
2017,06,22,15,07,20.90
2017,06,22,15,08,20.90
2017,06,22,15,09,20.90
2017,06,22,15,10,20.90
2017,06,22,15,11,21.00
2017,06,22,15,12,21.10
2017,06,22,15,13,21.00
2017,06,22,15,14,21.00
2017,06,22,15,15,20.90
2017,06,22,15,16,20.90
2017,06,22,15,17,20.90
2017,06,22,15,18,21.00
2017,06,22,15,19,21.00
2017,06,22,15,20,21.10
2017,06,22,15,21,21.20
2017,06,22,15,22,21.30
2017,06,22,15,23,21.40
2017,06,22,15,24,21.40
2017,06,22,15,25,21.40
2017,06,22,15,26,21.40
2017,06,22,15,27,21.40
2017,06,22,15,28,21.40
2017,06,22,15,29,21.40
2017,06,22,15,30,21.40
2017,06,22,15,31,21.40
2017,06,22,15,32,21.30
2017,06,22,15,33,21.30
2017,06,22,15,34,21.30
2017,06,22,15,35,21.30
2017,06,22,15,36,21.30
2017,06,22,15,37,21.30
2017,06,22,15,38,21.20
2017,06,22,15,39,21.20
2017,06,22,15,40,21.20
2017,06,22,15,41,21.10
2017,06,22,15,42,21.10
2017,06,22,15,43,21.10
2017,06,22,15,44,21.10
2017,06,22,15,45,21.10
2017,06,22,15,46,21.20
2017,06,22,15,47,21.10
2017,06,22,15,48,21.10
2017,06,22,15,49,21.10
2017,06,22,15,50,21.00
2017,06,22,15,51,21.00
2017,06,22,15,52,20.90
2017,06,22,15,53,20.90
2017,06,22,15,54,20.90
2017,06,22,15,55,20.90
2017,06,22,15,56,20.80
2017,06,22,15,57,20.80
2017,06,22,15,58,20.80
2017,06,22,15,59,20.80
2017,06,22,16,00,20.80
2017,06,22,16,01,20.80
2017,06,22,16,02,20.80
2017,06,22,16,03,20.80
2017,06,22,16,04,20.80
2017,06,22,16,05,20.80
2017,06,22,16,06,20.80
2017,06,22,16,07,20.80
2017,06,22,16,08,20.90
2017,06,22,16,09,21.00
2017,06,22,16,10,21.00
2017,06,22,16,11,21.10
2017,06,22,16,12,21.10
2017,06,22,16,13,21.10
2017,06,22,16,14,21.10
2017,06,22,16,15,21.10
2017,06,22,16,16,21.10
2017,06,22,16,17,21.20
2017,06,22,16,18,21.20
2017,06,22,16,19,21.30
2017,06,22,16,20,21.30
2017,06,22,16,21,21.30
2017,06,22,16,22,21.30
2017,06,22,16,23,21.40
2017,06,22,16,24,21.40
2017,06,22,16,25,21.50
2017,06,22,16,26,21.60
2017,06,22,16,27,21.80
2017,06,22,16,28,21.80
2017,06,22,16,29,21.90
2017,06,22,16,30,21.90
2017,06,22,16,31,22.00
2017,06,22,16,32,22.00
2017,06,22,16,33,22.10
2017,06,22,16,34,22.10
2017,06,22,16,35,22.00
2017,06,22,16,36,22.00
2017,06,22,16,37,22.00
2017,06,22,16,38,22.00
2017,06,22,16,39,22.00
2017,06,22,16,40,22.00
2017,06,22,16,41,22.00
2017,06,22,16,42,22.10
2017,06,22,16,43,22.10
2017,06,22,16,44,22.20
2017,06,22,16,45,22.20
2017,06,22,16,46,22.10
2017,06,22,16,47,22.00
2017,06,22,16,48,21.90
2017,06,22,16,49,21.90
2017,06,22,16,50,21.90
2017,06,22,16,51,21.80
2017,06,22,16,52,21.80
2017,06,22,16,53,21.80
2017,06,22,16,54,21.80
2017,06,22,16,55,21.80
2017,06,22,16,56,21.80
2017,06,22,16,57,21.90
2017,06,22,16,58,22.00
2017,06,22,16,59,22.10
2017,06,22,17,00,22.20
2017,06,22,17,01,22.20
2017,06,22,17,02,22.30
2017,06,22,17,03,22.30
2017,06,22,17,04,22.30
2017,06,22,17,05,22.30
2017,06,22,17,06,22.30
2017,06,22,17,07,22.30
2017,06,22,17,08,22.30
2017,06,22,17,09,22.30
2017,06,22,17,10,22.20
2017,06,22,17,11,22.10
2017,06,22,17,12,22.10
2017,06,22,17,13,22.10
2017,06,22,17,14,22.10
2017,06,22,17,15,22.20
2017,06,22,17,16,22.20
2017,06,22,17,17,22.30
2017,06,22,17,18,22.40
2017,06,22,17,19,22.40
2017,06,22,17,20,22.50
2017,06,22,17,21,22.50
2017,06,22,17,22,22.50
2017,06,22,17,23,22.40
2017,06,22,17,24,22.50
2017,06,22,17,25,22.50
2017,06,22,17,26,22.40